| time (UTC) | temp C | wind direction | speed KPH | gust KPH | rain 1hr cm | rain 24hr cm | rain mn cm | humidity % | barometer mb |
| 20260906191556 | 26 | 92 | 1.6 | 4.8 | 0.00 | 0.00 | 0.00 | 70 | 1018.0 |
| 20260906190046 | 26 | 360 | 1.6 | 6.4 | 0.00 | 0.00 | 0.00 | 70 | 1018.2 |
| 20260906184551 | 26 | 329 | 0.0 | 6.4 | 0.00 | 0.00 | 0.00 | 72 | 1018.1 |
| 20260906183050 | 26 | 0 | 0.0 | 6.4 | 0.00 | 0.00 | 0.00 | 71 | 1018.2 |
| 20260906181619 | 26 | 74 | 1.6 | 8.0 | 0.00 | 0.00 | 0.00 | 70 | 1018.4 |
| 20260906180100 | 26 | 86 | 1.6 | 8.0 | 0.00 | 0.00 | 0.00 | 70 | 1018.2 |
| 20260906174552 | 26 | 0 | 1.6 | 6.4 | 0.00 | 0.00 | 0.00 | 70 | 1018.1 |
| 20260906173048 | 26 | 291 | 1.6 | 6.4 | 0.00 | 0.00 | 0.00 | 71 | 1018.2 |
| 20260906171602 | 26 | 51 | 1.6 | 4.8 | 0.00 | 0.00 | 0.00 | 71 | 1018.2 |
| 20260906170048 | 26 | 56 | 1.6 | 6.4 | 0.00 | 0.00 | 0.00 | 71 | 1018.5 |
| 20260906164548 | 26 | 352 | 0.0 | 4.8 | 0.00 | 0.00 | 0.00 | 72 | 1018.6 |
| 20260906163047 | 25 | 45 | 1.6 | 8.0 | 0.00 | 0.00 | 0.00 | 73 | 1018.8 |
| 20260906161557 | 25 | 28 | 0.0 | 6.4 | 0.00 | 0.00 | 0.00 | 75 | 1018.8 |
| 20260906160055 | 25 | 49 | 0.0 | 4.8 | 0.00 | 0.00 | 0.00 | 74 | 1018.8 |
| 20260906154548 | 25 | 45 | 1.6 | 4.8 | 0.00 | 0.00 | 0.00 | 75 | 1018.9 |
| 20260906153048 | 25 | 352 | 1.6 | 6.4 | 0.00 | 0.00 | 0.00 | 75 | 1018.9 |
| 20260906151558 | 24 | 28 | 0.0 | 4.8 | 0.00 | 0.00 | 0.00 | 77 | 1019.2 |
| 20260906150053 | 23 | 0 | 1.6 | 4.8 | 0.00 | 0.00 | 0.00 | 80 | 1019.2 |
| 20260906144605 | 23 | 329 | 1.6 | 4.8 | 0.00 | 0.00 | 0.00 | 81 | 1019.1 |
| 20260906143109 | 23 | 36 | 1.6 | 4.8 | 0.00 | 0.00 | 0.00 | 81 | 1018.9 |
| 20260906141556 | 23 | 0 | 1.6 | 4.8 | 0.00 | 0.00 | 0.00 | 83 | 1018.9 |
| 20260906140049 | 22 | 32 | 1.6 | 6.4 | 0.00 | 0.00 | 0.00 | 86 | 1019.0 |
| 20260906134551 | 21 | 94 | 1.6 | 6.4 | 0.00 | 0.00 | 0.00 | 88 | 1018.9 |
| 20260906133105 | 21 | 338 | 1.6 | 4.8 | 0.00 | 0.00 | 0.00 | 92 | 1018.8 |
| 20260906131546 | 20 | 0 | 0.0 | 4.8 | 0.00 | 0.00 | 0.00 | 94 | 1018.8 |
| 20260906130100 | 19 | 327 | 1.6 | 3.2 | 0.00 | 0.00 | 0.00 | 94 | 1018.8 |
| 20260906124555 | 19 | 344 | 0.0 | 3.2 | 0.00 | 0.00 | 0.00 | 94 | 1018.7 |
| 20260906123050 | 18 | 344 | 0.0 | 1.6 | 0.00 | 0.00 | 0.00 | 94 | 1018.7 |
| 20260906121547 | 18 | 0 | 0.0 | 0.0 | 0.00 | 0.00 | 0.00 | 93 | 1018.7 |
| 20260906120050 | 18 | 0 | 0.0 | 0.0 | 0.00 | 0.00 | 0.00 | 93 | 1018.7 |
| 20260906114559 | 18 | 0 | 0.0 | 0.0 | 0.00 | 0.00 | 0.00 | 93 | 1018.5 |
| 20260906113052 | 18 | 0 | 0.0 | 0.0 | 0.00 | 0.00 | 0.00 | 92 | 1018.4 |
| 20260906111548 | 18 | 0 | 0.0 | 0.0 | 0.00 | 0.00 | 0.00 | 92 | 1018.5 |
| 20260906110047 | 18 | 0 | 0.0 | 0.0 | 0.00 | 0.00 | 0.00 | 92 | 1018.3 |
| 20260906104602 | 19 | 0 | 0.0 | 0.0 | 0.00 | 0.00 | 0.00 | 91 | 1018.1 |
| 20260906103048 | 18 | 0 | 0.0 | 0.0 | 0.00 | 0.00 | 0.00 | 91 | 1017.9 |
| 20260906101547 | 19 | 0 | 0.0 | 0.0 | 0.00 | 0.00 | 0.00 | 90 | 1018.1 |
| 20260906100047 | 19 | 0 | 0.0 | 0.0 | 0.00 | 0.00 | 0.00 | 90 | 1018.1 |
| 20260906094608 | 20 | 0 | 0.0 | 0.0 | 0.00 | 0.00 | 0.00 | 90 | 1017.8 |
| 20260906093117 | 20 | 0 | 0.0 | 1.6 | 0.00 | 0.00 | 0.00 | 90 | 1017.4 |
| 20260906091548 | 20 | 0 | 0.0 | 0.0 | 0.00 | 0.00 | 0.00 | 89 | 1017.4 |
| 20260906090057 | 20 | 0 | 0.0 | 3.2 | 0.00 | 0.00 | 0.00 | 89 | 1017.3 |
| 20260906084549 | 20 | 9 | 0.0 | 3.2 | 0.00 | 0.00 | 0.00 | 88 | 1017.3 |
| 20260906083050 | 20 | 0 | 0.0 | 1.6 | 0.00 | 0.00 | 0.00 | 88 | 1017.3 |
| 20260906081548 | 20 | 9 | 1.6 | 4.8 | 0.00 | 0.00 | 0.00 | 88 | 1017.4 |
| 20260906080045 | 20 | 0 | 0.0 | 3.2 | 0.00 | 0.00 | 0.00 | 88 | 1017.4 |
| 20260906074556 | 20 | 355 | 1.6 | 3.2 | 0.00 | 0.00 | 0.00 | 87 | 1017.4 |
| 20260906073048 | 21 | 0 | 0.0 | 3.2 | 0.00 | 0.00 | 0.00 | 87 | 1017.4 |
| 20260906071548 | 21 | 118 | 0.0 | 3.2 | 0.00 | 0.00 | 0.00 | 87 | 1017.4 |
| 20260906070059 | 21 | 0 | 0.0 | 0.0 | 0.00 | 0.00 | 0.00 | 87 | 1017.8 |
| 20260906064550 | 21 | 0 | 0.0 | 0.0 | 0.00 | 0.00 | 0.00 | 87 | 1017.8 |
| 20260906063050 | 20 | 0 | 0.0 | 1.6 | 0.00 | 0.00 | 0.00 | 88 | 1017.8 |
| 20260906061551 | 20 | 0 | 0.0 | 0.0 | 0.00 | 0.00 | 0.00 | 87 | 1017.8 |
| 20260906060100 | 21 | 0 | 0.0 | 0.0 | 0.00 | 0.00 | 0.00 | 87 | 1017.7 |
| 20260906054551 | 21 | 0 | 0.0 | 0.0 | 0.00 | 0.00 | 0.00 | 86 | 1017.7 |
| 20260906053048 | 21 | 118 | 0.0 | 0.0 | 0.00 | 0.00 | 0.00 | 86 | 1017.7 |
| 20260906051558 | 21 | 0 | 0.0 | 0.0 | 0.00 | 0.00 | 0.00 | 85 | 1017.7 |
| 20260906050106 | 21 | 0 | 0.0 | 0.0 | 0.00 | 0.00 | 0.00 | 84 | 1017.8 |
| 20260906044555 | 22 | 0 | 0.0 | 0.0 | 0.00 | 0.00 | 0.00 | 83 | 1017.9 |
| 20260906043048 | 22 | 0 | 0.0 | 0.0 | 0.00 | 0.00 | 0.00 | 81 | 1018.0 |
| 20260906041547 | 22 | 0 | 0.0 | 0.0 | 0.00 | 0.00 | 0.00 | 80 | 1018.0 |
| 20260906034548 | 23 | 0 | 0.0 | 0.0 | 0.00 | 0.00 | 0.00 | 77 | 1018.0 |
| 20260906033050 | 23 | 0 | 0.0 | 0.0 | 0.00 | 0.00 | 0.00 | 76 | 1018.1 |
| 20260906031556 | 23 | 0 | 0.0 | 0.0 | 0.00 | 0.00 | 0.00 | 76 | 1018.3 |
| 20260906030057 | 23 | 0 | 0.0 | 3.2 | 0.00 | 0.00 | 0.00 | 76 | 1018.2 |
| 20260906024557 | 23 | 0 | 0.0 | 1.6 | 0.00 | 0.00 | 0.00 | 76 | 1018.1 |
| 20260906023047 | 24 | 0 | 0.0 | 3.2 | 0.00 | 0.00 | 0.00 | 75 | 1018.1 |
| 20260906021544 | 24 | 0 | 0.0 | 4.8 | 0.00 | 0.00 | 0.00 | 75 | 1017.8 |
| 20260906020058 | 24 | 0 | 0.0 | 3.2 | 0.00 | 0.00 | 0.00 | 74 | 1017.4 |
| 20260906014625 | 25 | 0 | 0.0 | 1.6 | 0.00 | 0.00 | 0.00 | 73 | 1016.8 |
| 20260906013102 | 25 | 0 | 0.0 | 3.2 | 0.00 | 0.00 | 0.00 | 73 | 1016.4 |
| 20260906011548 | 25 | 0 | 0.0 | 3.2 | 0.00 | 0.00 | 0.00 | 73 | 1015.9 |
| 20260906010051 | 25 | 0 | 0.0 | 0.0 | 0.00 | 0.00 | 0.00 | 72 | 1015.8 |
| 20260906004547 | 26 | 0 | 0.0 | 0.0 | 0.00 | 0.00 | 0.00 | 70 | 1015.4 |
| 20260906003047 | 26 | 0 | 0.0 | 3.2 | 0.00 | 0.00 | 0.00 | 69 | 1015.4 |
| 20260906001548 | 26 | 0 | 0.0 | 4.8 | 0.00 | 0.00 | 0.00 | 67 | 1015.2 |
| 20260906000047 | 27 | 352 | 1.6 | 6.4 | 0.00 | 0.00 | 0.00 | 66 | 1015.1 |
| 20260905234612 | 27 | 303 | 1.6 | 6.4 | 0.00 | 0.00 | 0.00 | 65 | 1015.4 |
| 20260905233049 | 27 | 329 | 3.2 | 8.0 | 0.00 | 0.00 | 0.00 | 65 | 1015.4 |
| 20260905231550 | 27 | 352 | 3.2 | 8.0 | 0.00 | 0.00 | 0.00 | 64 | 1015.3 |
| 20260905230048 | 27 | 26 | 0.0 | 14.5 | 0.00 | 0.00 | 0.00 | 64 | 1015.4 |
| 20260905224548 | 28 | 329 | 3.2 | 9.7 | 0.00 | 0.00 | 0.00 | 62 | 1015.3 |
| 20260905223050 | 28 | 340 | 3.2 | 8.0 | 0.00 | 0.00 | 0.00 | 64 | 1014.9 |
| 20260905221608 | 27 | 318 | 4.8 | 16.1 | 0.00 | 0.00 | 0.00 | 63 | 1015.0 |
| 20260905220047 | 27 | 5 | 4.8 | 16.1 | 0.00 | 0.00 | 0.00 | 64 | 1015.1 |
| 20260905214556 | 27 | 343 | 4.8 | 9.7 | 0.00 | 0.00 | 0.00 | 65 | 1015.2 |
| 20260905213058 | 27 | 31 | 4.8 | 12.9 | 0.00 | 0.00 | 0.00 | 65 | 1015.3 |
| 20260905211546 | 27 | 313 | 3.2 | 12.9 | 0.00 | 0.00 | 0.00 | 65 | 1015.7 |
| 20260905210057 | 27 | 331 | 4.8 | 14.5 | 0.00 | 0.00 | 0.00 | 66 | 1015.7 |
| 20260905204549 | 27 | 325 | 3.2 | 9.7 | 0.00 | 0.00 | 0.00 | 67 | 1016.0 |
| 20260905203055 | 27 | 346 | 4.8 | 14.5 | 0.00 | 0.00 | 0.00 | 68 | 1016.4 |
| 20260905201604 | 27 | 344 | 4.8 | 14.5 | 0.00 | 0.00 | 0.00 | 68 | 1016.7 |
| 20260905200048 | 26 | 340 | 3.2 | 12.9 | 0.00 | 0.00 | 0.00 | 68 | 1016.9 |
| 20260905194555 | 26 | 13 | 1.6 | 12.9 | 0.00 | 0.00 | 0.00 | 70 | 1017.1 |
| 20260905193059 | 26 | 337 | 4.8 | 9.7 | 0.00 | 0.00 | 0.00 | 70 | 1017.3 |